Weather History for Ruston, LA

Change the Weather History Date:

Friday, November 9, 2012

  Actual Average Record
Temperature  
Mean Temperature 58 °F -  
Max Temperature 73 °F 68 °F 89 °F (2001)
Min Temperature 43 °F 45 °F 20 °F (1991)
Degree Days  
Heating Degree Days 7    
Growing Degree Days 8 (Base 50)    
Moisture  
Dew Point 44 °F    
Average Humidity 66    
Maximum Humidity 99    
Minimum Humidity 28    
Precipitation  
Precipitation 0.00 in - - ()
Sea Level Pressure  
Sea Level Pressure 30.19 in    
Wind  
Wind Speed 6 mph (South)    
Max Wind Speed 10 mph    
Max Gust Speed -    
Visibility 10 miles    
Events      
Averages and records for this station are not official NWS values.
T = Trace of Precipitation, MM = Missing Value Source: NWS Daily Summary

Daily Weather History Graph

Daily Weather History Graph

Search for Another Location

Airport:

Trip Planner

Search our weather history database for the weather conditions in past years. The results will help you decide how hot, cold, wet, or windy it might be!

Date:

Astronomy

Nov. 09, 2012 Rise Set
Actual Time 6:35 AM CST 5:12 PM CST
Civil Twilight 6:09 AM CST 5:38 PM CST
Nautical Twilight 5:39 AM CST 6:08 PM CST
Astronomical Twilight 5:10 AM CST 6:37 PM CST
Moon 1:49 AM CST (11/9) 2:13 PM CST (11/9)
Length of Visible Light 11h 29m
Length of Day
10h 37m
Waning Crescent, 23% of the Moon is Illuminated
Nov 9
Waning Crescent
Nov 13
New
Nov 20
First Quarter
Nov 28
Full
Dec 6
Last Quarter

Hourly Weather History & Observations

Time (CST) Temp. Windchill Dew Point Humidity Pressure Visibility Wind Dir Wind Speed Gust Speed Precip Events Conditions
12:15 AM 48.4 °F - 41.5 °F 77% 30.19 in 10.0 mi South 6.9 mph - N/A   Clear
12:35 AM 49.1 °F - 41.4 °F 75% 30.18 in 10.0 mi South 6.9 mph - N/A   Clear
12:55 AM 49.5 °F - 41.4 °F 74% 30.19 in 10.0 mi South 6.9 mph - N/A   Clear
1:15 AM 50.0 °F - 41.5 °F 73% 30.19 in 10.0 mi South 6.9 mph - N/A   Clear
1:35 AM 49.1 °F - 41.4 °F 75% 30.19 in 10.0 mi South 5.8 mph - N/A   Clear
1:55 AM 49.1 °F - 41.2 °F 74% 30.18 in 10.0 mi South 4.6 mph - N/A   Clear
2:15 AM 48.0 °F - 41.2 °F 77% 30.18 in 10.0 mi South 5.8 mph - N/A   Clear
2:35 AM 47.8 °F - 41.9 °F 80% 30.18 in 10.0 mi SSW 3.5 mph - N/A   Clear
2:55 AM 47.5 °F - 41.9 °F 81% 30.18 in 10.0 mi South 4.6 mph - N/A   Clear
3:15 AM 46.8 °F - 41.9 °F 83% 30.19 in 10.0 mi Calm Calm - N/A   Clear
3:35 AM 46.4 °F - 42.1 °F 85% 30.19 in 10.0 mi Calm Calm - N/A   Clear
3:55 AM 45.5 °F 44.2 °F 42.3 °F 88% 30.19 in 10.0 mi South 3.5 mph - N/A   Clear
4:15 AM 45.1 °F 42.0 °F 42.6 °F 91% 30.19 in 10.0 mi South 5.8 mph - N/A   Clear
4:35 AM 45.3 °F 43.0 °F 42.4 °F 90% 30.19 in 10.0 mi South 4.6 mph - N/A   Clear
4:55 AM 45.0 °F 41.8 °F 42.4 °F 91% 30.20 in 10.0 mi South 5.8 mph - N/A   Clear
5:15 AM 44.6 °F 42.2 °F 43.0 °F 94% 30.20 in 10.0 mi South 4.6 mph - N/A   Clear
5:35 AM 43.9 °F 41.3 °F 43.0 °F 97% 30.21 in 10.0 mi South 4.6 mph - N/A   Clear
5:55 AM 44.6 °F 43.1 °F 43.3 °F 95% 30.22 in 10.0 mi South 3.5 mph - N/A   Clear
6:15 AM 45.5 °F 41.8 °F 44.2 °F 95% 30.22 in 10.0 mi South 6.9 mph - N/A   Clear
6:35 AM 46.0 °F 43.1 °F 43.9 °F 92% 30.23 in 10.0 mi South 5.8 mph - N/A   Clear
6:55 AM 45.5 °F 42.5 °F 44.1 °F 95% 30.23 in 10.0 mi South 5.8 mph - N/A   Clear
7:15 AM 45.5 °F 42.5 °F 44.2 °F 95% 30.23 in 10.0 mi South 5.8 mph - N/A   Clear
7:35 AM 45.0 °F 41.8 °F 44.8 °F 99% 30.24 in 10.0 mi South 5.8 mph - N/A   Clear
7:55 AM 46.6 °F - 45.3 °F 95% 30.24 in 10.0 mi SSE 4.6 mph - N/A   Clear
8:15 AM 49.6 °F - 45.1 °F 84% 30.25 in 10.0 mi South 5.8 mph - N/A   Clear
8:35 AM 51.4 °F - 44.4 °F 77% 30.25 in 10.0 mi SSE 6.9 mph - N/A   Clear
8:55 AM 52.9 °F - 44.2 °F 72% 30.24 in 10.0 mi SSE 6.9 mph - N/A   Clear
9:15 AM 57.2 °F - 43.5 °F 60% 30.24 in 10.0 mi South 9.2 mph - N/A   Clear
9:35 AM 60.1 °F - 43.0 °F 53% 30.25 in 10.0 mi South 9.2 mph - N/A   Clear
9:55 AM 62.6 °F - 43.7 °F 50% 30.25 in 10.0 mi South 9.2 mph - N/A   Clear
10:15 AM 63.3 °F - 44.4 °F 50% 30.25 in 10.0 mi SSE 6.9 mph - N/A   Clear
10:35 AM 65.1 °F - 44.8 °F 48% 30.25 in 10.0 mi South 6.9 mph - N/A   Clear
10:55 AM 66.7 °F - 44.8 °F 45% 30.25 in 10.0 mi South 5.8 mph - N/A   Clear
11:15 AM 67.6 °F - 42.6 °F 40% 30.23 in 10.0 mi SSE 8.1 mph - N/A   Clear
11:35 AM 69.6 °F - 42.6 °F 38% 30.22 in 10.0 mi South 5.8 mph - N/A   Clear
11:55 AM 69.1 °F - 41.7 °F 37% 30.21 in 10.0 mi SSE 5.8 mph - N/A   Clear
12:15 PM 68.7 °F - 40.5 °F 36% 30.20 in 10.0 mi South 8.1 mph - N/A   Clear
12:35 PM 70.7 °F - 40.3 °F 33% 30.19 in 10.0 mi South 6.9 mph - N/A   Clear
12:55 PM 71.8 °F - 37.9 °F 29% 30.17 in 10.0 mi South 10.4 mph - N/A   Clear
1:15 PM 72.9 °F - 38.3 °F 29% 30.16 in 10.0 mi South 10.4 mph - N/A   Clear
1:35 PM 72.1 °F - 38.7 °F 30% 30.17 in 10.0 mi South 8.1 mph - N/A   Clear
1:55 PM 73.4 °F - 38.1 °F 28% 30.16 in 10.0 mi South 9.2 mph - N/A   Clear
2:15 PM 72.0 °F - 38.3 °F 29% 30.15 in 10.0 mi SSE 9.2 mph - N/A   Clear
2:35 PM 72.3 °F - 38.7 °F 29% 30.14 in 10.0 mi SSE 8.1 mph - N/A   Clear
2:55 PM 72.5 °F - 39.6 °F 30% 30.14 in 10.0 mi SSE 6.9 mph - N/A   Clear
3:15 PM 72.1 °F - 38.5 °F 29% 30.15 in 10.0 mi SSE 5.8 mph - N/A   Clear
3:35 PM 72.5 °F - 39.6 °F 30% 30.14 in 10.0 mi SE 4.6 mph - N/A   Clear
3:55 PM 71.6 °F - 40.6 °F 33% 30.14 in 10.0 mi SE 5.8 mph - N/A   Clear
4:15 PM 71.1 °F - 42.6 °F 36% 30.14 in 10.0 mi SE 3.5 mph - N/A   Clear
4:35 PM 69.8 °F - 43.5 °F 39% 30.14 in 10.0 mi SE 3.5 mph - N/A   Clear
4:55 PM 66.7 °F - 48.0 °F 51% 30.14 in 10.0 mi Calm Calm - N/A   Clear
5:15 PM 62.1 °F - 48.9 °F 62% 30.13 in 10.0 mi SE 3.5 mph - N/A   Clear
5:35 PM 61.7 °F - 48.4 °F 62% 30.14 in 10.0 mi SE 4.6 mph - N/A   Clear
5:55 PM 58.3 °F - 49.5 °F 72% 30.14 in 10.0 mi SSE 4.6 mph - N/A   Clear
6:15 PM 59.2 °F - 48.6 °F 68% 30.15 in 10.0 mi SSE 5.8 mph - N/A   Clear
6:35 PM 58.5 °F - 48.2 °F 69% 30.15 in 10.0 mi SSE 5.8 mph - N/A   Clear
6:55 PM 58.3 °F - 47.5 °F 67% 30.15 in 10.0 mi SSE 6.9 mph - N/A   Clear
7:15 PM 58.8 °F - 46.9 °F 65% 30.15 in 10.0 mi SSE 5.8 mph - N/A   Clear
7:35 PM 58.1 °F - 46.9 °F 66% 30.15 in 10.0 mi SSE 5.8 mph - N/A   Clear
7:55 PM 57.4 °F - 46.9 °F 68% 30.16 in 10.0 mi SSE 5.8 mph - N/A   Clear
8:15 PM 57.4 °F - 47.1 °F 69% 30.16 in 10.0 mi South 6.9 mph - N/A   Clear
8:35 PM 58.1 °F - 47.3 °F 67% 30.16 in 10.0 mi South 6.9 mph - N/A   Clear
8:55 PM 57.2 °F - 47.5 °F 70% 30.16 in 10.0 mi SSE 6.9 mph - N/A   Clear
9:15 PM 57.4 °F - 47.8 °F 70% 30.17 in 10.0 mi SSE 6.9 mph - N/A   Clear
9:35 PM 55.8 °F - 48.2 °F 76% 30.17 in 10.0 mi South 6.9 mph - N/A   Clear
9:55 PM 55.9 °F - 48.6 °F 76% 30.17 in 10.0 mi South 8.1 mph - N/A   Clear
10:15 PM 56.5 °F - 49.1 °F 76% 30.17 in 10.0 mi South 6.9 mph - N/A   Clear
10:35 PM 56.1 °F - 49.6 °F 79% 30.17 in 10.0 mi South 6.9 mph - N/A   Clear
10:55 PM 56.7 °F - 50.9 °F 81% 30.18 in 10.0 mi South 6.9 mph - N/A   Clear
11:15 PM 56.7 °F - 51.3 °F 82% 30.17 in 10.0 mi South 6.9 mph - N/A   Clear
11:35 PM 56.8 °F - 51.8 °F 83% 30.17 in 10.0 mi South 8.1 mph - N/A   Clear
11:55 PM 57.2 °F - 52.7 °F 85% 30.17 in 10.0 mi South 9.2 mph - N/A   Clear